Hopewell, New Jersey, United States (08525)
Lat: 40.39N, Lon: 74.76W
Wx Zone: NJZ015
Local Info
Past Weather Observations for Monday, September 26, 2016

NOTE: This archive is for the closest National Weather Service station to Hopewell. Information may differ from the station used for current weather conditions.

Click here for Long-term Archive

Time Weather Temperature Dewpoint Humidity Pressure Winds Precip Visibility
23:53
Overcast
66°F / 19°C 57°F / 14°C 73% 29.95 in
(1014 mb)
Calm - 10SM
22:53
Overcast
66°F / 19°C 55°F / 13°C 68% 29.98 in
(1015 mb)
SSE 3.5 mph
(SSE 6 kph)
- 10SM
21:53
Overcast
66°F / 19°C 54°F / 12°C 64% 29.98 in
(1015 mb)
SSE 5.8 mph
(SSE 9 kph)
- 10SM
20:53
Overcast
66°F / 19°C 54°F / 12°C 64% 30.04 in
(1017 mb)
Calm - 10SM
19:53
Overcast
66°F / 19°C 52°F / 11°C 60% 30.04 in
(1017 mb)
Variable 3.5 mph
(Variable 6 kph)
- 10SM
18:53
Overcast
66°F / 19°C 48°F / 9°C 52% 30.04 in
(1017 mb)
S 6.9 mph
(S 11 kph)
- 10SM
17:53
Overcast
68°F / 20°C 48°F / 9°C 49% 30.04 in
(1017 mb)
S 8.1 mph
(S 13 kph)
- 10SM
16:53
Overcast
70°F / 21°C 48°F / 9°C 46% 30.04 in
(1017 mb)
S 6.9 mph
(S 11 kph)
- 10SM
15:53
Overcast
72°F / 22°C 48°F / 9°C 44% 30.04 in
(1017 mb)
Variable 4.6 mph
(Variable 7 kph)
- 10SM
14:53
Overcast
72°F / 22°C 48°F / 9°C 44% 30.04 in
(1017 mb)
SSE 5.8 mph
(SSE 9 kph)
- 10SM
13:53
Overcast
72°F / 22°C 48°F / 9°C 44% 30.09 in
(1019 mb)
S 9.2 mph
(S 15 kph)
- 10SM
12:53
Mostly Cloudy
73°F / 23°C 50°F / 10°C 44% 30.09 in
(1019 mb)
Variable 5.8 mph
(Variable 9 kph)
- 9SM
11:53
Mostly Cloudy
72°F / 22°C 48°F / 9°C 44% 30.12 in
(1020 mb)
Variable 6.9 mph
(Variable 11 kph)
- 10SM
10:53
Partly Cloudy
70°F / 21°C 52°F / 11°C 53% 30.15 in
(1021 mb)
S 8.1 mph
(S 13 kph)
- 9SM
09:53
Partly Cloudy
66°F / 19°C 48°F / 9°C 52% 30.15 in
(1021 mb)
SSE 5.8 mph
(SSE 9 kph)
- 10SM
08:53
Clear
63°F / 17°C 45°F / 7°C 52% 30.18 in
(1022 mb)
Calm - 10SM
07:53
Clear
57°F / 14°C 45°F / 7°C 63% 30.18 in
(1022 mb)
Variable 3.5 mph
(Variable 6 kph)
- 10SM
06:53
Clear
45°F / 7°C 43°F / 6°C 93% 30.18 in
(1022 mb)
NW 3.5 mph
(NW 6 kph)
- 10SM
05:53
Clear
43°F / 6°C 39°F / 4°C 87% 30.18 in
(1022 mb)
Calm - 10SM
04:53
Clear
43°F / 6°C 39°F / 4°C 87% 30.18 in
(1022 mb)
NW 3.5 mph
(NW 6 kph)
- 10SM
03:53
Clear
43°F / 6°C 39°F / 4°C 87% 30.18 in
(1022 mb)
NW 4.6 mph
(NW 7 kph)
- 10SM
02:53
Clear
43°F / 6°C 39°F / 4°C 87% 30.15 in
(1021 mb)
NW 4.6 mph
(NW 7 kph)
- 10SM
01:53
Clear
43°F / 6°C 41°F / 5°C 93% 30.18 in
(1022 mb)
NW 3.5 mph
(NW 6 kph)
- 10SM
00:53
Clear
43°F / 6°C 39°F / 4°C 87% 30.18 in
(1022 mb)
Calm - 10SM
Time Weather Temperature Dewpoint Humidity Pressure Winds Precip Visibility


Weather for websites

WeatherForYou.com, LLC is not responsible for any damages or problems caused by this service. Current weather conditions are obtained from the closest station including government and personal stations which may have varying degrees of accuracy. Weather forecasts are derived from the NOAA NDFD. Like all things, this site belongs to Jesus Christ... He just trusts us to maintain it. If you have any questions or comments email webmaster@weatherforyou.com

Copyright © 2016, WeatherForYou.com LLC. All rights reserved.